Lincoln, NE

12:56 AM CST on November 17, 2019 (GMT -0600)
Lincoln Municipal

Weather History for KLNK - August, 2019

Change the Weather History Date:

Saturday, August 31, 2019

  Actual Average Record
Temperature  
Mean Temperature 69 °F 72 °F  
Max Temperature 76 °F 84 °F 103 °F (1913)
Min Temperature 61 °F 60 °F 42 °F (2009)
Degree Days  
Heating Degree Days 0 1  
Month to date heating degree days 0 2  
Since 1 June heating degree days 6 22  
Since 1 July heating degree days 0 6  
Cooling Degree Days 4 8  
Month to date cooling degree days 306 324  
Year to date cooling degree days 1052 1035  
Since 1 June cooling degree days 980 956  
Growing Degree Days 18 (Base 50)    
Moisture  
Dew Point 57 °F    
Average Humidity 72    
Maximum Humidity 90    
Minimum Humidity 53    
Precipitation  
Precipitation 0.17 in 0.12 in 1.96 in (1938)
Month to date precipitation 2.79 3.49  
Year to date precipitation 24.66 21.58  
Snow  
Snow 0.00 in 0.00 in 0.00 in (2005)
Month to date snowfall 0.0 0.0  
Since 1 June snowfall 0.0 0.0  
Since 1 July snowfall 0.0 0.0  
Snow Depth 0.00 in    
Sea Level Pressure  
Sea Level Pressure 30.17 in    
Wind  
Wind Speed 7 mph (SE)    
Max Wind Speed 14 mph    
Max Gust Speed 20 mph    
Visibility 10 miles    
Events Rain , Thunderstorm    
T = Trace of Precipitation, MM = Missing Value Source: NWS Daily Summary

Daily Weather History Graph

Daily Weather History Graph

Search for Another Location

Airport or City:

Astronomy

Aug. 31, 2019 Rise Set
Actual Time 6:52 AM CDT 8:01 PM CDT
Civil Twilight 6:24 AM CDT 8:29 PM CDT
Nautical Twilight 5:50 AM CDT 9:03 PM CDT
Astronomical Twilight 5:15 AM CDT 9:38 PM CDT
Moon 8:10 AM CDT (8/31) 9:14 PM CDT (8/31)
Length of Visible Light 14h 04m
Length of Day
13h 08m
New Moon, 3% of the Moon is Illuminated
Aug 31
New Moon
Sep 5
First Quarter
Sep 13
Full
Sep 21
Last Quarter
Sep 28
New

Hourly Weather History & Observations

Time (CDT) Temp. Dew Point Humidity Pressure Visibility Wind Dir Wind Speed Gust Speed Precip Events Conditions
12:54 AM 68.0 °F 60.1 °F 76% 30.18 in 10.0 mi East 6.9 mph - N/A   Scattered Clouds
1:54 AM 68.0 °F 59.0 °F 73% 30.17 in 10.0 mi ESE 6.9 mph - N/A   Overcast
2:54 AM 66.9 °F 59.0 °F 76% 30.17 in 10.0 mi ESE 8.1 mph - N/A   Overcast
3:54 AM 66.0 °F 57.0 °F 73% 30.17 in 10.0 mi East 5.8 mph - 0.00 in   Mostly Cloudy
4:54 AM 64.9 °F 55.9 °F 73% 30.18 in 10.0 mi East 6.9 mph - N/A   Overcast
5:06 AM 64.9 °F 55.9 °F 73% 30.22 in 10.0 mi Calm Calm - N/A Thunderstorm Overcast
5:21 AM 64.0 °F 57.0 °F 78% 30.21 in 10.0 mi East 5.8 mph - 0.00 in Rain Light Rain
5:54 AM 63.0 °F 57.9 °F 84% 30.17 in 6.0 mi SSE 11.5 mph - 0.03 in Rain Heavy Rain
6:54 AM 62.1 °F 57.9 °F 86% 30.19 in 10.0 mi East 4.6 mph - 0.11 in Rain Light Rain
7:54 AM 61.0 °F 57.0 °F 87% 30.18 in 10.0 mi SE 8.1 mph - 0.01 in Rain Light Rain
8:54 AM 62.1 °F 57.9 °F 86% 30.21 in 10.0 mi SE 3.5 mph - 0.01 in Rain Light Rain
9:54 AM 64.0 °F 59.0 °F 84% 30.20 in 10.0 mi SE 8.1 mph - 0.01 in Rain Light Rain
10:54 AM 66.9 °F 59.0 °F 76% 30.20 in 10.0 mi SE 9.2 mph - 0.00 in   Overcast
11:24 AM 68.0 °F 57.9 °F 70% 30.22 in 10.0 mi SSE 12.7 mph - N/A   Overcast
11:54 AM 68.0 °F 59.0 °F 73% 30.19 in 10.0 mi SSE 11.5 mph - N/A   Overcast
12:14 PM 70.0 °F 59.0 °F 68% 30.20 in 10.0 mi SE 9.2 mph - N/A   Scattered Clouds
12:36 PM 70.0 °F 59.0 °F 68% 30.20 in 10.0 mi SSE 10.4 mph - N/A   Mostly Cloudy
12:54 PM 70.0 °F 59.0 °F 68% 30.18 in 10.0 mi SE 10.4 mph - N/A   Overcast
1:54 PM 72.0 °F 59.0 °F 64% 30.17 in 10.0 mi ESE 10.4 mph - N/A   Partly Cloudy
2:54 PM 75.0 °F 59.0 °F 57% 30.14 in 10.0 mi East 9.2 mph - N/A   Clear
3:54 PM 73.0 °F 57.9 °F 59% 30.13 in 10.0 mi South 3.5 mph - N/A   Overcast
4:54 PM 73.9 °F 59.0 °F 59% 30.12 in 10.0 mi SE 8.1 mph - N/A   Scattered Clouds
5:54 PM 73.0 °F 55.9 °F 55% 30.12 in 10.0 mi SE 9.2 mph - N/A   Clear
6:54 PM 72.0 °F 55.0 °F 55% 30.12 in 10.0 mi ESE 6.9 mph - N/A   Clear
7:54 PM 69.1 °F 53.1 °F 57% 30.13 in 10.0 mi ESE 6.9 mph - N/A   Clear
8:54 PM 66.9 °F 52.0 °F 59% 30.14 in 10.0 mi East 4.6 mph - N/A   Clear
9:54 PM 64.9 °F 54.0 °F 68% 30.15 in 10.0 mi ESE 4.6 mph - N/A   Clear
10:54 PM 63.0 °F 55.0 °F 75% 30.15 in 10.0 mi SE 3.5 mph - N/A   Clear
11:54 PM 64.9 °F 55.0 °F 70% 30.14 in 10.0 mi Calm Calm - N/A   Clear